sat.trackr.live / text

‹ back to catalog

STARLINK-37334

NORAD 68700 · 2026-081B

PAYLOAD ACTIVE UNKNOWN

§ Identity

Operator
Country
US
Launch date
2026-04-14
Launch site
AFETR
Launch vehicle
Mass (kg)
RCS (m²)

Purposes: comms

External: N2YO · Heavens-Above · Gunter

§ Orbital elements

Epoch: 2026-09-20T04:07:44.654304Z

Period
93.85 min
Inclination
53.1595°
Eccentricity
0.0001505
Mean motion
15.34403765 rev/d
Perigee alt
461.7 km
Apogee alt
463.7 km
Semi-major
6,840.8 km
B*
3.6693e-4
RAAN
207.5734°
Arg perigee
88.7035°
Mean anomaly
271.4140°
Rev number
2,456

§ Raw data

STARLINK-373341 68700U 26081B   26263.17204461  .00012042  00000+0  36693-3 0  99902 68700  53.1595 207.5734 0001505  88.7035 271.4140 15.34403765 24565

JSON: /api/v1/satellites/68700 · /tle

For live sub-satellite position, see the globe view (requires WebGL).

§ Visibility from observer

Set your observer location to see the next 7 days of passes ≥ 10°. The values pass through the URL so the page stays shareable.

No JS? Fill the form by hand. The geolocation button needs JavaScript.